Weather History for KBBW - October, 2013

Change the Weather History Date:

Sunday, October 6, 2013

  Actual Average Record
Temperature  
Mean Temperature 50 °F 53 °F  
Max Temperature 63 °F 67 °F 92 °F (1990)
Min Temperature 37 °F 39 °F 15 °F (1952)
Degree Days  
Heating Degree Days 15 12  
Month to date heating degree days 67 67  
Cooling Degree Days 0 0  
Month to date cooling degree days 0 2  
Year to date cooling degree days 814 764  
Moisture  
Dew Point 34 °F    
Average Humidity 64    
Maximum Humidity 100    
Minimum Humidity 27    
Precipitation  
Precipitation 0.05 in 0.07 in 1.37 in (2008)
Sea Level Pressure  
Sea Level Pressure 30.02 in    
Wind  
Wind Speed 16 mph (NW)    
Max Wind Speed 30 mph    
Max Gust Speed 39 mph    
Visibility 10 miles    
Events Rain    
T = Trace of Precipitation, MM = Missing Value Source: NWS Daily Summary

Daily Weather History Graph

Daily Weather History Graph

Search for Another Location

Airport or City:

Trip Planner

Search our weather history database for the weather conditions in past years. The results will help you decide how hot, cold, wet, or windy it might be!

Date:

Astronomy

Oct. 06, 2013 Rise Set
Actual Time 7:40 AM CDT 7:11 PM CDT
Civil Twilight 7:13 AM CDT 7:39 PM CDT
Nautical Twilight 6:41 AM CDT 8:11 PM CDT
Astronomical Twilight 6:08 AM CDT 8:43 PM CDT
Moon 9:28 AM CDT (10/6) 8:10 PM CDT (10/6)
Length of Visible Light 12h 25m
Length of Day
11h 30m
Waxing Crescent, 3% of the Moon is Illuminated
Oct 6
Waxing Crescent
Oct 11
First Quarter
Oct 18
Full
Oct 26
Last Quarter
Nov 3
New

Hourly Weather History & Observations

Time (CDT) Temp. Windchill Dew Point Humidity Pressure Visibility Wind Dir Wind Speed Gust Speed Precip Events Conditions
12:27 AM 37.4 °F 26.1 °F 37.4 °F 100% 29.94 in 10.0 mi NNW 24.2 mph 34.5 mph 0.00 in   Overcast
12:53 AM 37.9 °F 26.6 °F 36.0 °F 93% 29.99 in 9.0 mi NNW 25.3 mph 39.1 mph 0.00 in Rain Light Rain
1:53 AM 37.9 °F 27.1 °F 37.9 °F 100% 29.99 in 10.0 mi NNW 23.0 mph 31.1 mph 0.02 in Rain Light Rain
2:05 AM 37.4 °F 26.4 °F 37.4 °F 100% 29.95 in 9.0 mi NW 23.0 mph 33.4 mph 0.01 in Rain Light Rain
2:53 AM 37.9 °F 27.1 °F 37.9 °F 100% 29.99 in 9.0 mi NW 23.0 mph 34.5 mph 0.03 in Rain Light Rain
3:10 AM 37.4 °F 26.1 °F 37.4 °F 100% 29.94 in 10.0 mi NW 24.2 mph 34.5 mph 0.00 in Rain Light Rain
3:22 AM 37.4 °F 25.9 °F 37.4 °F 100% 29.94 in 10.0 mi NW 25.3 mph 34.5 mph 0.01 in Rain Light Rain
3:32 AM 37.4 °F 26.4 °F 37.4 °F 100% 29.95 in 10.0 mi NNW 23.0 mph 39.1 mph 0.01 in   Overcast
3:44 AM 37.4 °F 26.6 °F 37.4 °F 100% 29.95 in 10.0 mi NNW 21.9 mph 34.5 mph 0.01 in   Overcast
3:53 AM 39.0 °F 29.3 °F 39.0 °F 100% 29.99 in 10.0 mi NNW 19.6 mph 36.8 mph 0.01 in   Overcast
4:20 AM 39.2 °F 29.6 °F 39.2 °F 100% 29.95 in 10.0 mi NNW 19.6 mph 29.9 mph N/A   Overcast
4:53 AM 39.9 °F 29.5 °F 36.0 °F 86% 29.99 in 10.0 mi NNW 24.2 mph 33.4 mph N/A   Overcast
5:53 AM 39.0 °F 30.6 °F 34.0 °F 82% 30.00 in 10.0 mi NW 15.0 mph 25.3 mph N/A   Mostly Cloudy
6:53 AM 39.0 °F 28.8 °F 32.0 °F 76% 30.00 in 10.0 mi NW 21.9 mph 28.8 mph N/A   Overcast
7:53 AM 39.0 °F 29.6 °F 28.0 °F 65% 30.01 in 10.0 mi NNW 18.4 mph 29.9 mph N/A   Partly Cloudy
8:53 AM 41.0 °F 33.9 °F 30.0 °F 65% 30.04 in 10.0 mi NW 12.7 mph 24.2 mph N/A   Clear
9:53 AM 45.0 °F 37.6 °F 32.0 °F 60% 30.05 in 10.0 mi NW 17.3 mph 28.8 mph N/A   Clear
10:53 AM 50.0 °F - 30.9 °F 48% 30.06 in 10.0 mi North 17.3 mph 29.9 mph N/A   Clear
11:53 AM 54.0 °F - 30.0 °F 40% 30.06 in 10.0 mi NNW 16.1 mph 25.3 mph N/A   Clear
12:53 PM 57.0 °F - 25.0 °F 29% 30.05 in 10.0 mi NNW 23.0 mph 31.1 mph N/A   Clear
1:53 PM 60.1 °F - 27.0 °F 28% 30.03 in 10.0 mi NNW 20.7 mph 32.2 mph N/A   Clear
2:53 PM 62.1 °F - 30.0 °F 30% 30.01 in 10.0 mi NNW 19.6 mph 33.4 mph N/A   Clear
3:53 PM 62.1 °F - 30.9 °F 31% 30.02 in 10.0 mi NW 20.7 mph 29.9 mph N/A   Clear
4:53 PM 62.1 °F - 30.9 °F 31% 30.03 in 10.0 mi NNW 16.1 mph 29.9 mph N/A   Clear
5:53 PM 60.1 °F - 30.0 °F 32% 30.05 in 10.0 mi NNW 15.0 mph 27.6 mph N/A   Clear
6:53 PM 55.9 °F - 32.0 °F 40% 30.07 in 10.0 mi NNW 12.7 mph - N/A   Clear
7:53 PM 52.0 °F - 33.1 °F 49% 30.10 in 10.0 mi NNW 11.5 mph - N/A   Clear
8:53 PM 51.1 °F - 35.1 °F 54% 30.11 in 10.0 mi NNW 10.4 mph - N/A   Clear
9:53 PM 48.9 °F - 35.1 °F 59% 30.12 in 10.0 mi WNW 4.6 mph - N/A   Clear
10:53 PM 39.9 °F 37.8 °F 35.1 °F 83% 30.13 in 10.0 mi WNW 3.5 mph - N/A   Clear
11:53 PM 45.0 °F 40.6 °F 36.0 °F 71% 30.11 in 10.0 mi NW 8.1 mph - N/A   Clear